Tracking 31027 objects as of 19-Jul-2025
HD Live streaming from Space Station
objects crossing your sky now

STARLINK-4261

Track STARLINK-4261 now!
10-day predictions
STARLINK-4261 is classified as:


NORAD ID: 52868
Int'l Code: 2022-062AQ
Perigee: 545.9 km
Apogee: 547.9 km
Inclination: 53.2 °
Period: 95.4 minutes
Semi major axis: 6917 km
RCS: Unknown
Launch date: June 17, 2022
Source: United States (US)
Launch site: AIR FORCE EASTERN TEST RANGE (AFETR)
Your satellite tracking list
SL-12 R/B(AUX MOTOR)
Track 1 satellite(s)




NASA's NSSDC Master Catalog

Two Line Element Set (TLE):
1 52868U 22062AQ  25199.69909798  .00001050  00000-0  84043-4 0  9993
2 52868  53.2190 354.5747 0001456  88.4324 271.6835 15.08837409171096
Source of the keplerian elements: AFSPC